Location: Buch
(49.7331°N, 12.1098°E)
Time: 00:27:58
(UTC+00:00)

Meteor 1-10 Rocket - Pass Details

Date: 12 May 2021
Orbit: 836 x 909 km, 81.3° (Epoch: 23 June)

Event Time Altitude Azimuth Distance (km) Brightness Sun altitude
Exits shadow 20:59:39 11° 198° (SSW) 2,376 6.2 -16.2°
Maximum altitude 21:05:00 75° 283° (WNW) 887 4.4 -16.7°
Drops below altitude 10° 21:10:43 10° 9° (N) 2,519 7.4 -17.1°
Sets 21:13:12 0° 12° (NNE) 3,472 8.2 -17.3°
